Regional Weather Roundup
Issued by NWS

Home | Current Version | Previous Version | Text Only | Print | Product List | Glossary On
Versions: 1 2 3 4 5 6 7 8 9 10 11 12 13 14 15 16 17 18 19 20 21 22 23 24 25 26 27 28 29 30 31 32 33 34 35 36 37 38 39 40 41 42 43 44 45 46 47 48 49 50
000
ASUS43 KDTX 171110
RWRMI
MICHIGAN HOURLY REGIONAL WEATHER ROUNDUP
NATIONAL WEATHER SERVICE DETROIT/PONTIAC MI
600 AM EST SUN DEC 17 2017

NOTE: "FAIR" INDICATES FEW OR NO CLOUDS BELOW 12,000 FEET WITH NO
SIGNIFICANT WEATHER AND/OR OBSTRUCTION TO VISIBILITY.

MIZ047>049-052>055-059>063-066>070-074>076-081>083-171200-
SOUTHEAST LOWER MICHIGAN

CITY           SKY/WX    TMP DP  RH WIND       PRES   REMARKS
ALMA           CLOUDY    24  22  91 E7        30.20S WCI  16
ANN ARBOR      CLOUDY    24  19  81 NE7       30.18R WCI  16
BAD AXE        CLOUDY    24  20  86 CALM      30.23R
CARO           CLOUDY    25  21  85 E6        30.21R WCI  18
DETROIT CITY   CLOUDY    26  20  77 NE7       30.21R WCI  18
DETROIT        CLOUDY    30  22  72 NE8       30.21R WCI  22
FLINT          CLOUDY    23  17  78 E7        30.20R WCI  15
GROSSE ILE     CLOUDY    27  23  85 NE8       30.19R WCI  18
HILLSDALE      FOG       27  25  93 E6        30.11F VSB 1/2 WCI  20
HOWELL         CLOUDY    24  20  87 E5        30.17R WCI  18

CITY           SKY/WX    TMP DP  RH WIND       PRES   REMARKS
JACKSON        CLOUDY    25  20  81 E8        30.15R WCI  16
LAMBERTVILLE   CLOUDY    27  24  87 E3        30.16F
LANSING        CLOUDY    22  19  89 E10       30.17F WCI  11
LAPEER         CLOUDY    25  20  80 E5        30.20R WCI  19
MASON          CLOUDY    23  17  78 E5        30.16S WCI  17
MONROE         CLOUDY    26  21  81 NE6       30.17F WCI  19
MT. CLEMENS    CLOUDY    25  20  82 NE9       30.20R WCI  15
PONTIAC        CLOUDY    23  16  74 E7        30.17R WCI  15
PORT HOPE        N/A     26  22  84 E16       30.22S WCI  14
PORT HURON     CLOUDY    23  14  68 E6        30.23R WCI  16
TRI CITIES     CLOUDY    24  21  88 E10       30.21S WCI  14
MIDLAND        CLOUDY    22  19  85 NE3       30.21S
TROY           CLOUDY    25  18  75 E5        30.22R WCI  19
SAGINAW HB     CLOUDY    25  21  86 NE7       30.21R WCI  17
$$
MIZ043>046-050>051-056>058-064>065-071>073-077>080-171200-
SOUTHWEST LOWER MICHIGAN

CITY           SKY/WX    TMP DP  RH WIND       PRES   REMARKS
BATTLE CREEK   CLOUDY    26  25  96 E7        30.13R FOG     WCI  18
BENTON HARBOR  PTCLDY    26  22  84 E8        30.09S FOG     WCI  18
BIG RAPIDS     CLOUDY    21  18  88 E9        30.16F WCI  11
COLDWATER      CLOUDY    27  27 100 E8        30.12S FOG     WCI  19
HOLLAND        CLOUDY    23  20  88 E12       30.14S WCI  12
GRAND RAPIDS   CLOUDY    22  19  89 E16       30.15R WCI   8
IONIA          CLOUDY    22  19  86 E9        30.15F WCI  12
KALAMAZOO      CLOUDY    26  24  92 E5        30.12S FOG     WCI  20
LUDINGTON      CLOUDY    24  20  85 E8        30.16S WCI  15
MARSHALL       CLOUDY    26  26  98 E6        30.12F FOG     WCI  20
MOUNT PLEASANT CLOUDY    22  18  84 NE6       30.19S WCI  14
MUSKEGON       CLOUDY    22  17  81 E10       30.15S WCI  11
SOUTH HAVEN    PTCLDY    26  22  87 E10       30.10S WCI  16
$$
MIZ016>042-171200-
NORTHERN LOWER MICHIGAN

CITY           SKY/WX    TMP DP  RH WIND       PRES   REMARKS
ALPENA         CLOUDY    18  15  88 CALM      30.25S
BEAVER ISLAND  CLOUDY    20  16  83 E9        30.23S WCI  10
BELLAIRE       CLOUDY    17  16  95 CALM      30.22F
CADILLAC       CLOUDY    18  17  96 E6        30.14R WCI  10
CHARLEVOIX     FLURRIES  14  12  94 SE5       30.26R WCI   6
FRANKFORT      CLOUDY    20  17  86 E3        30.19R
GAYLORD        CLOUDY    13   9  84 E3        30.17F
GRAYLING       CLOUDY    14  11  87 E6        30.19F WCI   5
HARBOR SPRINGS CLOUDY     8   5  87 E6        30.24S WCI  -2
HOUGHTON LAKE  CLOUDY    16  14  92 E7        30.19S WCI   6
MANISTEE       CLOUDY    23  18  81 E7        30.17R WCI  15
OSCODA         CLOUDY    19  14  80 CALM      30.23S
PELLSTON       CLOUDY    -6 -10  83 CALM      30.26R
ROGERS CITY    CLOUDY    18  14  85 S3        30.27R
TRAVERSE CITY  CLOUDY    18  14  84 E5        30.21R WCI  11
$$
MIZ007>008-015-171200-
EASTERN UPPER MICHIGAN

CITY           SKY/WX    TMP DP  RH WIND       PRES   REMARKS
KINROSS        LGT SNOW   1  -1  91 SE6       30.27R FOG     WCI -10
MACKINAC ISLAN CLOUDY    14  10  85 NE10      30.24F WCI   1
NEWBERRY       CLOUDY     3   2  97 CALM      30.24R
S. S. MARIE    CLOUDY     1  -5  75 E3        30.28R
MUNISING         N/A     12   8  84 SW6       30.21F WCI   3
$$
MIZ004>006-011>014-085-171200-
CENTRAL UPPER MICHIGAN

CITY           SKY/WX    TMP DP  RH WIND       PRES   REMARKS
MANISTIQUE     CLOUDY    11   6  80 NE6       30.21F WCI   1
ESCANABA       CLOUDY    18  14  84 NE6       30.20F WCI  10
MENOMINEE      CLOUDY    21  18  88 NW6       30.19R WCI  13
SAWYER-GWINN   CLOUDY    13  10  87 S3        30.16F
$$
MIZ001>003-009>011-084-171200-
WESTERN UPPER MICHIGAN

CITY           SKY/WX    TMP DP  RH WIND       PRES   REMARKS
IRON MOUNTAIN  CLOUDY    17  13  84 CALM      30.14F
HOUGHTON       CLOUDY    20  15  81 S9        30.12R WCI   9
COPPER HARBOR    N/A     24  20  84 SW10G21   30.13F WCI  14
IRONWOOD       CLOUDY    22  20  92 S5        30.11S WCI  16
$$

ABBREVIATIONS USED IN REMARKS
   TC - TEMPERATURE IN CELSIUS
  WCI - WIND CHILL INDEX
   HX - HEAT INDEX
  VSB - VISIBILITY





USA.gov is the U.S. government's official web portal to all federal, state and local government web resources and services.